Location: Unspecified
(51.0950°N, 12.9690°E)
Time: 22:47:50
(UTC+00:00)

EO-79 - Pass Details

Date: 30 April 2024
Orbit: 562 x 575 km, 98.0° (Epoch: 28 May)

Event Time Altitude Azimuth Distance (km) Brightness Sun altitude
Rises 01:20:43 0° 26° (NNE) 2,803 ? -17.7°
Reaches altitude 10° 01:23:23 10° 44° (NE) 1,899 ? -17.5°
Maximum altitude 01:26:24 20° 92° (E) 1,381 ? -17.2°
Drops below altitude 10° 01:29:24 10° 139° (SE) 1,888 ? -16.9°
Enters shadow 01:30:42 - 150° (SSE) 2,302 ? -16.8°
